Location: Hillern
(53.0557°N, 9.8577°E)
Time: 01:04:12
(UTC+00:00)

Cosmos 2298 Rocket - Pass Details

Date: 19 May 2025
Orbit: 773 x 782 km, 74.0° (Epoch: 15 June)

Event Time Altitude Azimuth Distance (km) Brightness Sun altitude
Rises 21:16:17 0° 332° (NNW) 3,282 9.4 -12.4°
Reaches altitude 10° 21:18:43 10° 329° (NNW) 2,350 8.0 -12.6°
Maximum altitude 21:23:58 62° 250° (WSW) 883 4.3 -13.0°
Enters shadow 21:27:58 17° 174° (S) 1,879 5.4 -13.2°
